Weather Roundup
Issued by NWS Springfield, MO

Home | Current Version | Previous Version | Text Only | Print | Product List | Glossary On
Versions: 1 2 3 4 5 6 7 8 9 10 11 12 13 14 15 16 17 18 19 20 21 22 23 24 25 26 27 28 29 30 31 32 33 34 35 36 37 38 39 40 41 42 43 44 45 46 47 48 49 50
000
NZUS99 KSGF 221207
HRRSGF

HOURLY WEATHER
NATIONAL WEATHER SERVICE SPRINGFIELD MO
700 AM CDT FRI JUL 22 2016

......SGF CWA......

CITY           SKY/WX    TMP DP  RH WIND       PRES   REMARKS
SPRINGFIELD    CLEAR     77  73  87 S5        30.09R
6HR MIN TEMP:  75; 6HR MAX TEMP:  79;

JOPLIN         CLEAR     78  72  81 S8        30.06S
6HR MIN TEMP:  76; 6HR MAX TEMP:  80;

WEST PLAINS    CLEAR     78  74  87 CALM      30.12R
6HR MIN TEMP:  76; 6HR MAX TEMP:  81;

ROLLA          CLEAR     77  74  90 SW5       30.08R
6HR MIN TEMP:  76; 6HR MAX TEMP:  78;

OSAGE BEACH    CLEAR     76  73  91 CALM      30.07S
BRANSON        CLEAR     77  73  88 CALM      30.11S

......SURROUNDING SGF CWA......

CITY           SKY/WX    TMP DP  RH WIND       PRES   REMARKS
CHANUTE        CLEAR     76  72  87 S6        30.04R
PARSONS        CLEAR     75  72  90 CALM      30.05R
COFFEYVILLE    CLEAR     75  73  93 S5        30.04R
EMPORIA        CLEAR     79  68  69 S12       30.02R
GROVE OK       CLEAR     73  73 100 CALM      30.08R
ROGERS AR      CLEAR     76  73  91 SE5       30.12R
SILOAM SPRINGS CLEAR     73  64  73 S3        30.11R
HARRISON AR    CLEAR     75  73  93 SE3       30.11S
NEAR YELLVILLE CLEAR     77  72  83 CALM      30.05S

......KANSAS AND MISSOURI......

CITY           SKY/WX    TMP DP  RH WIND       PRES   REMARKS
KANSAS CTY INT PTCLDY    79  72  79 SW8       30.01R
DOWNTOWN KC    CLEAR     85  71  63 SW9       30.00R HX  90
COLUMBIA       CLOUDY    74  71  91 NE20G32   30.13R
SEDALIA        CLEAR     80  73  79 SW8       30.05R
ST JOSEPH      CLEAR     79  72  79 S6        29.98R
ST LOUIS       CLOUDY    76  67  73 NE10G23   30.12R
SPIRIT OF STL  CLOUDY    76  69  79 NE15      30.11R
KIRKSVILLE     CLOUDY    71  67  87 N13G18    30.16R
WICHITA        PTCLDY    76  69  79 S8        30.02S
TOPEKA         CLEAR     81  71  71 SW5       29.99R
OLATHE         CLEAR     77  71  82 S6        30.03R

......TENNESSEE......

CITY           SKY/WX    TMP DP  RH WIND       PRES   REMARKS
MEMPHIS        MOSUNNY   82  76  81 CALM      30.06S
NASHVILLE      CLOUDY    78  72  81 CALM      30.09R

......ARKANSAS.......

CITY           SKY/WX    TMP DP  RH WIND       PRES   REMARKS
FAYETTEVILLE   CLEAR     73  73 100 CALM      30.11R
FT SMITH       CLEAR     79  76  90 CALM      30.06S
LITTLE ROCK    MOCLDY    84  77  79 CALM      30.06S HX  94

......OKLAHOMA.......

CITY           SKY/WX    TMP DP  RH WIND       PRES   REMARKS
TULSA          CLEAR     80  71  74 S6        30.03R
PONCA CITY     CLEAR     80  68  66 S9G16     30.03R
MCALESTER      CLEAR     74  70  87 CALM      30.08R
OKLAHOMA CITY  CLEAR     72  68  87 S6        30.06R

......IOWA............

CITY           SKY/WX    TMP DP  RH WIND       PRES   REMARKS
DES MOINES     CLOUDY    75  70  84 S17       29.99S
QUAD CITIES    CLOUDY    72  67  84 SW7       30.01F

......ILLINOIS........

CITY           SKY/WX    TMP DP  RH WIND       PRES   REMARKS
QUINCY         CLOUDY    70  68  93 S14       30.08F
CHICAGO        CLOUDY    72  68  87 NW7       30.03R




USA.gov is the U.S. government's official web portal to all federal, state and local government web resources and services.